EDW22 MKJS-LSZH

Flight info

Callsign EDW22
Flight time N/A
Altitude 35000
Route ELUTU5 TILUP DCT ULDAR UM331 GHANN DCT FORST DCT ROSEA DCT PAARR DCT SMTTY DCT AVNEY DCT RENAH DCT CANEE/M085F350 DCT RUDLI DCT BALTN DCT SOORY DCT 43N050W 46N040W 49N030W 50N020W DCT SOMAX DCT ATSUR DCT RATKA/N0489F350 DCT LARLA DCT GANTO DCT JSY DCT TURDU DCT TADUP DCT TEPRI DCT POGZI DCT GELTA DCT MANAG DCT PEVIT DCT BLM
Aircraft A359/H-SABDE2E3GHIJ2J3J4J5M1P2RWXYZ/LB1D1

Departure

Time 2026-05-07 13:39
Airport Sangster International Airport (MKJS)

Arrival

Time N/A
Airport Zürich Airport (LSZH)
Time Latitude Longitude Altitude Speed Heading
2026-05-07 12:38 18.49989 -77.91438 26 ft 0 kts 155°
2026-05-07 13:24 18.50001 -77.91443 26 ft 2 kts 155°
2026-05-07 13:25 18.50014 -77.91450 26 ft 2 kts 155°
2026-05-07 13:25 18.50028 -77.91456 26 ft 2 kts 155°
2026-05-07 13:25 18.50042 -77.91463 26 ft 2 kts 155°
2026-05-07 13:25 18.50055 -77.91469 25 ft 2 kts 155°
2026-05-07 13:26 18.50069 -77.91475 25 ft 2 kts 168°
2026-05-07 13:26 18.50084 -77.91476 25 ft 2 kts 186°
2026-05-07 13:26 18.50098 -77.91473 25 ft 2 kts 200°
2026-05-07 13:26 18.50112 -77.91466 24 ft 2 kts 216°
2026-05-07 13:27 18.50123 -77.91456 24 ft 2 kts 231°
2026-05-07 13:27 18.50131 -77.91444 24 ft 0 kts 245°
2026-05-07 13:27 18.50133 -77.91439 24 ft 0 kts 246°
2026-05-07 13:29 18.50132 -77.91440 24 ft 0 kts 246°
2026-05-07 13:30 18.50131 -77.91443 24 ft 0 kts 246°
2026-05-07 13:30 18.50117 -77.91478 24 ft 6 kts 246°
2026-05-07 13:30 18.50098 -77.91523 24 ft 6 kts 246°
2026-05-07 13:30 18.50080 -77.91566 24 ft 6 kts 245°
2026-05-07 13:31 18.50061 -77.91609 23 ft 6 kts 245°
2026-05-07 13:31 18.50041 -77.91655 23 ft 7 kts 245°
2026-05-07 13:31 18.50021 -77.91702 23 ft 6 kts 245°
2026-05-07 13:31 18.50002 -77.91743 23 ft 5 kts 245°
2026-05-07 13:32 18.49985 -77.91782 23 ft 5 kts 245°
2026-05-07 13:32 18.49969 -77.91819 23 ft 5 kts 245°
2026-05-07 13:32 18.49953 -77.91856 23 ft 5 kts 246°
2026-05-07 13:32 18.49937 -77.91892 23 ft 5 kts 246°
2026-05-07 13:33 18.49922 -77.91929 23 ft 5 kts 246°
2026-05-07 13:33 18.49908 -77.91964 23 ft 5 kts 247°
2026-05-07 13:33 18.49894 -77.91999 23 ft 5 kts 247°
2026-05-07 13:33 18.49871 -77.92058 23 ft 11 kts 248°
2026-05-07 13:34 18.49839 -77.92133 23 ft 11 kts 245°
2026-05-07 13:34 18.49766 -77.92282 22 ft 9 kts 221°
2026-05-07 13:34 18.49710 -77.92313 21 ft 8 kts 206°
2026-05-07 13:35 18.49680 -77.92342 20 ft 5 kts 248°
2026-05-07 13:35 18.49689 -77.92371 20 ft 4 kts 320°
2026-05-07 13:35 18.49713 -77.92385 20 ft 3 kts 331°
2026-05-07 13:35 18.49731 -77.92395 20 ft 3 kts 332°
2026-05-07 13:36 18.49767 -77.92415 20 ft 6 kts 333°
2026-05-07 13:36 18.49780 -77.92422 20 ft 0 kts 333°
2026-05-07 13:36 18.49780 -77.92423 20 ft 0 kts 333°
2026-05-07 13:37 18.49821 -77.92443 20 ft 8 kts 334°
2026-05-07 13:37 18.49870 -77.92448 21 ft 5 kts 26°
2026-05-07 13:38 18.49886 -77.92428 22 ft 0 kts 54°
2026-05-07 13:38 18.49920 -77.92372 23 ft 36 kts 62°
2026-05-07 13:38 18.50120 -77.91897 21 ft 104 kts 65°
2026-05-07 13:38 18.50505 -77.91017 24 ft 161 kts 66°
2026-05-07 13:39 18.51021 -77.89784 296 ft 187 kts 68°
2026-05-07 13:39 18.51574 -77.88640 1030 ft 189 kts 57°
2026-05-07 13:39 18.52456 -77.87591 1779 ft 191 kts 48°
2026-05-07 13:39 18.53408 -77.86601 2482 ft 197 kts 52°
2026-05-07 13:40 18.54340 -77.85480 3017 ft 212 kts 53°
2026-05-07 13:40 18.55327 -77.84264 3417 ft 225 kts 53°
2026-05-07 13:40 18.56362 -77.82973 3725 ft 240 kts 53°
2026-05-07 13:40 18.57601 -77.81694 4020 ft 259 kts 36°
2026-05-07 13:41 18.59296 -77.80988 4576 ft 269 kts 15°
2026-05-07 13:41 18.61160 -77.80627 5202 ft 272 kts 14°
2026-05-07 13:41 18.63044 -77.80281 5794 ft 276 kts 14°
2026-05-07 13:41 18.64935 -77.79934 6386 ft 279 kts 13°
2026-05-07 13:42 18.66845 -77.79578 6959 ft 281 kts 13°
2026-05-07 13:42 18.68796 -77.79210 7537 ft 284 kts 13°
2026-05-07 13:42 18.70743 -77.78841 8099 ft 286 kts 12°
2026-05-07 13:42 18.72725 -77.78464 8649 ft 289 kts 12°
2026-05-07 13:43 18.74697 -77.78090 9173 ft 291 kts 12°
2026-05-07 13:43 18.76708 -77.77706 9695 ft 294 kts 12°
2026-05-07 13:43 18.78723 -77.77322 10203 ft 297 kts 11°
2026-05-07 13:43 18.80806 -77.76925 10484 ft 309 kts 11°
2026-05-07 13:44 18.82954 -77.76515 10732 ft 321 kts 11°
2026-05-07 13:44 18.85197 -77.76086 10971 ft 333 kts 11°
2026-05-07 13:44 18.87543 -77.75638 11209 ft 345 kts 11°
2026-05-07 13:44 18.89957 -77.75176 11436 ft 357 kts 11°
2026-05-07 13:45 18.92435 -77.74702 11655 ft 369 kts 11°
2026-05-07 13:45 18.95030 -77.74206 11888 ft 380 kts 11°
2026-05-07 13:45 18.97650 -77.73704 12263 ft 385 kts 11°
2026-05-07 13:45 19.00278 -77.73202 12725 ft 388 kts 11°
2026-05-07 13:46 19.02962 -77.72687 13198 ft 391 kts 10°
2026-05-07 13:46 19.05662 -77.72170 13674 ft 393 kts 11°
2026-05-07 13:46 19.08335 -77.71661 14181 ft 393 kts 11°
2026-05-07 13:46 19.11032 -77.71143 14687 ft 393 kts 12°
2026-05-07 13:47 19.13715 -77.70525 15167 ft 393 kts 15°
2026-05-07 13:47 19.16329 -77.69749 15629 ft 393 kts 18°
2026-05-07 13:47 19.18954 -77.68861 16081 ft 393 kts 19°
2026-05-07 13:47 19.21558 -77.67966 16519 ft 394 kts 20°
2026-05-07 13:48 19.24153 -77.67069 16939 ft 394 kts 20°
2026-05-07 13:48 19.26762 -77.66168 17368 ft 395 kts 20°
2026-05-07 13:48 19.29376 -77.65265 17798 ft 395 kts 20°
2026-05-07 13:48 19.31992 -77.64361 18180 ft 396 kts 20°
2026-05-07 13:49 19.34628 -77.63449 18541 ft 398 kts 20°
2026-05-07 13:49 19.37259 -77.62541 18812 ft 402 kts 20°
2026-05-07 13:49 19.39943 -77.61615 19001 ft 408 kts 19°
2026-05-07 13:49 19.42670 -77.60673 19318 ft 410 kts 19°
2026-05-07 13:50 19.45411 -77.59727 19672 ft 412 kts 19°
2026-05-07 13:50 19.48136 -77.58788 20016 ft 413 kts 19°
2026-05-07 13:50 19.50845 -77.57809 20333 ft 414 kts 23°
2026-05-07 13:50 19.53450 -77.56454 20657 ft 414 kts 31°
2026-05-07 13:51 19.55798 -77.54736 20995 ft 415 kts 38°
2026-05-07 13:51 19.57947 -77.52663 21324 ft 417 kts 43°
2026-05-07 13:51 19.59998 -77.50515 21617 ft 419 kts 44°
2026-05-07 13:51 19.62069 -77.48319 21774 ft 424 kts 44°
2026-05-07 13:52 19.64184 -77.46072 21931 ft 429 kts 44°
2026-05-07 13:52 19.66289 -77.43835 22205 ft 431 kts 43°
2026-05-07 13:52 19.68422 -77.41572 22500 ft 432 kts 43°
2026-05-07 13:52 19.70547 -77.39317 22792 ft 433 kts 43°
2026-05-07 13:53 19.72687 -77.37046 23068 ft 435 kts 43°
2026-05-07 13:53 19.74825 -77.34779 23346 ft 437 kts 44°
2026-05-07 13:53 19.76953 -77.32509 23580 ft 439 kts 44°
2026-05-07 13:53 19.79122 -77.30190 23824 ft 441 kts 43°
2026-05-07 13:54 19.81299 -77.27870 24084 ft 443 kts 43°
2026-05-07 13:54 19.83479 -77.25551 24324 ft 445 kts 43°
2026-05-07 13:54 19.85654 -77.23238 24567 ft 447 kts 43°
2026-05-07 13:54 19.87880 -77.20871 24789 ft 450 kts 43°
2026-05-07 13:55 19.90078 -77.18529 25006 ft 452 kts 43°
2026-05-07 13:55 19.92316 -77.16146 25228 ft 454 kts 43°
2026-05-07 13:55 19.94531 -77.13786 25455 ft 455 kts 43°
2026-05-07 13:55 19.96767 -77.11403 25700 ft 457 kts 43°
2026-05-07 13:56 19.99024 -77.08995 25928 ft 458 kts 43°
2026-05-07 13:56 20.01289 -77.06580 26142 ft 460 kts 43°
2026-05-07 13:56 20.03542 -77.04178 26316 ft 463 kts 43°
2026-05-07 13:56 20.05817 -77.01750 26506 ft 465 kts 43°
2026-05-07 13:57 20.08103 -76.99309 26698 ft 466 kts 43°
2026-05-07 13:57 20.10389 -76.96865 26892 ft 468 kts 43°
2026-05-07 13:57 20.12700 -76.94406 27091 ft 469 kts 43°
2026-05-07 13:57 20.15014 -76.91948 27291 ft 471 kts 43°
2026-05-07 13:58 20.17339 -76.89473 27484 ft 472 kts 43°
2026-05-07 13:58 20.19642 -76.87014 27647 ft 474 kts 43°
2026-05-07 13:58 20.21974 -76.84521 27817 ft 476 kts 43°
2026-05-07 13:58 20.24323 -76.82007 28003 ft 477 kts 43°
2026-05-07 13:59 20.26685 -76.79473 28247 ft 477 kts 43°
2026-05-07 13:59 20.29000 -76.76989 28542 ft 477 kts 43°
2026-05-07 13:59 20.31345 -76.74470 28779 ft 477 kts 43°
2026-05-07 13:59 20.33687 -76.71954 28981 ft 478 kts 43°
2026-05-07 14:00 20.36003 -76.69463 29214 ft 478 kts 43°
2026-05-07 14:00 20.38358 -76.66932 29483 ft 477 kts 43°
2026-05-07 14:00 20.40705 -76.64491 29745 ft 475 kts 41°
2026-05-07 14:00 20.43196 -76.62143 30033 ft 473 kts 38°
2026-05-07 14:01 20.45727 -76.59926 30307 ft 472 kts 37°
2026-05-07 14:01 20.48261 -76.57732 30558 ft 471 kts 37°
2026-05-07 14:01 20.50810 -76.55527 30781 ft 471 kts 37°
2026-05-07 14:01 20.53358 -76.53325 31016 ft 470 kts 37°
2026-05-07 14:02 20.55907 -76.51117 31264 ft 469 kts 37°
2026-05-07 14:02 20.58461 -76.48903 31507 ft 469 kts 37°
2026-05-07 14:02 20.60976 -76.46720 31713 ft 468 kts 37°
2026-05-07 14:02 20.63518 -76.44513 31914 ft 468 kts 37°
2026-05-07 14:03 20.66016 -76.42342 32113 ft 467 kts 37°
2026-05-07 14:03 20.68538 -76.40148 32332 ft 467 kts 37°
2026-05-07 14:03 20.71048 -76.37965 32531 ft 466 kts 37°
2026-05-07 14:03 20.73588 -76.35753 32708 ft 466 kts 37°
2026-05-07 14:04 20.76099 -76.33561 32880 ft 466 kts 37°
2026-05-07 14:04 20.78604 -76.31366 33067 ft 465 kts 37°
2026-05-07 14:04 20.81067 -76.29134 33251 ft 466 kts 39°
2026-05-07 14:04 20.83506 -76.26859 33425 ft 466 kts 39°
2026-05-07 14:05 20.85917 -76.24599 33549 ft 466 kts 39°
2026-05-07 14:05 20.88353 -76.22315 33674 ft 467 kts 39°
2026-05-07 14:05 20.90791 -76.20028 33796 ft 467 kts 39°
2026-05-07 14:05 20.93258 -76.17715 33900 ft 468 kts 39°
2026-05-07 14:06 20.95703 -76.15422 33988 ft 469 kts 39°
2026-05-07 14:06 20.98174 -76.13104 34113 ft 469 kts 39°
2026-05-07 14:06 21.00615 -76.10812 34226 ft 469 kts 39°
2026-05-07 14:07 21.05517 -76.06209 34421 ft 470 kts 39°
2026-05-07 14:07 21.07996 -76.03881 34523 ft 470 kts 39°
2026-05-07 14:07 21.10451 -76.01574 34612 ft 471 kts 39°
2026-05-07 14:08 21.15397 -75.96949 34775 ft 472 kts 38°
2026-05-07 14:08 21.20341 -75.92315 34966 ft 473 kts 39°
2026-05-07 14:09 21.25275 -75.87673 35033 ft 474 kts 39°
2026-05-07 14:09 21.30255 -75.82979 35040 ft 474 kts 39°
2026-05-07 14:10 21.35198 -75.78312 35040 ft 473 kts 39°
2026-05-07 14:10 21.40110 -75.73671 35044 ft 474 kts 39°
2026-05-07 14:11 21.45067 -75.68983 35037 ft 474 kts 38°
2026-05-07 14:11 21.50005 -75.64309 35041 ft 474 kts 39°
2026-05-07 14:12 21.54941 -75.59631 35045 ft 474 kts 38°
2026-05-07 14:12 21.59881 -75.54944 35038 ft 473 kts 38°
2026-05-07 14:13 21.64819 -75.50256 35039 ft 473 kts 38°
2026-05-07 14:13 21.69738 -75.45579 35042 ft 473 kts 38°
2026-05-07 14:14 21.74682 -75.40878 35038 ft 473 kts 38°
2026-05-07 14:14 21.79571 -75.36221 35043 ft 473 kts 38°
2026-05-07 14:15 21.84500 -75.31503 35038 ft 474 kts 39°
2026-05-07 14:15 21.89439 -75.26765 35040 ft 474 kts 39°
2026-05-07 14:16 21.94346 -75.22075 35041 ft 473 kts 39°
2026-05-07 14:16 21.99260 -75.17378 35043 ft 473 kts 39°
2026-05-07 14:17 22.04108 -75.12552 35042 ft 474 kts 40°
2026-05-07 14:17 22.08978 -75.07766 35042 ft 472 kts 37°
2026-05-07 14:18 22.14192 -75.03547 35045 ft 469 kts 31°
2026-05-07 14:18 22.19714 -74.99828 35042 ft 468 kts 28°
2026-05-07 14:19 22.25298 -74.96187 35045 ft 468 kts 28°
2026-05-07 14:19 22.30885 -74.92538 35043 ft 469 kts 28°
2026-05-07 14:20 22.36443 -74.88899 35046 ft 469 kts 28°
2026-05-07 14:20 22.42032 -74.85233 35047 ft 469 kts 28°
2026-05-07 14:21 22.47604 -74.81575 35047 ft 468 kts 28°
2026-05-07 14:21 22.53178 -74.77911 35049 ft 468 kts 28°
2026-05-07 14:22 22.58705 -74.74274 35045 ft 468 kts 28°
2026-05-07 14:22 22.64279 -74.70601 35054 ft 469 kts 28°
2026-05-07 14:23 22.69874 -74.66919 35050 ft 469 kts 28°
2026-05-07 14:23 22.75433 -74.63257 35054 ft 468 kts 28°
2026-05-07 14:24 22.81016 -74.59573 35056 ft 468 kts 28°
2026-05-07 14:24 22.86547 -74.55918 35053 ft 468 kts 28°
2026-05-07 14:25 22.92126 -74.52227 35060 ft 469 kts 28°
2026-05-07 14:25 22.97671 -74.48553 35055 ft 469 kts 28°
2026-05-07 14:26 23.03236 -74.44861 35061 ft 469 kts 28°
2026-05-07 14:26 23.08811 -74.41159 35059 ft 468 kts 28°
2026-05-07 14:27 23.14389 -74.37461 35061 ft 469 kts 28°
2026-05-07 14:27 23.19930 -74.33779 35059 ft 468 kts 28°
2026-05-07 14:28 23.25553 -74.30168 35062 ft 466 kts 25°
2026-05-07 14:28 23.31308 -74.26979 35058 ft 466 kts 24°
2026-05-07 14:29 23.37121 -74.23807 35062 ft 466 kts 24°
2026-05-07 14:29 23.42919 -74.20637 35058 ft 466 kts 24°
2026-05-07 14:30 23.48692 -74.17477 35061 ft 465 kts 24°
2026-05-07 14:30 23.54502 -74.14292 35061 ft 466 kts 24°
2026-05-07 14:31 23.60288 -74.11118 35059 ft 466 kts 24°
2026-05-07 14:31 23.66071 -74.07941 35061 ft 466 kts 24°
2026-05-07 14:32 23.71870 -74.04752 35058 ft 466 kts 24°
2026-05-07 14:32 23.77644 -74.01572 35061 ft 465 kts 24°
2026-05-07 14:33 23.83411 -73.98392 35060 ft 465 kts 24°
2026-05-07 14:33 23.89186 -73.95198 35060 ft 465 kts 23°
2026-05-07 14:34 23.94905 -73.91884 35058 ft 466 kts 25°
2026-05-07 14:34 24.00592 -73.88508 35064 ft 466 kts 25°
2026-05-07 14:35 24.06274 -73.85141 35060 ft 466 kts 25°
2026-05-07 14:35 24.11992 -73.81760 35063 ft 466 kts 25°
2026-05-07 14:36 24.17704 -73.78396 35060 ft 465 kts 25°
2026-05-07 14:36 24.23389 -73.75037 35065 ft 465 kts 25°
2026-05-07 14:37 24.29092 -73.71658 35062 ft 465 kts 25°
2026-05-07 14:37 24.37649 -73.66575 35062 ft 466 kts 25°
2026-05-07 14:38 24.43350 -73.63184 35065 ft 466 kts 25°
2026-05-07 14:38 24.49049 -73.59789 35067 ft 466 kts 25°
2026-05-07 14:39 24.54721 -73.56407 35072 ft 466 kts 25°
2026-05-07 14:39 24.60440 -73.53002 35076 ft 467 kts 25°
2026-05-07 14:40 24.66145 -73.49603 35079 ft 466 kts 24°
2026-05-07 14:40 24.71839 -73.46201 35078 ft 466 kts 24°
2026-05-07 14:41 24.77566 -73.42773 35082 ft 466 kts 25°
2026-05-07 14:41 24.83241 -73.39372 35083 ft 467 kts 24°
2026-05-07 14:42 24.88954 -73.35944 35078 ft 468 kts 24°
2026-05-07 14:42 24.94668 -73.32492 35082 ft 468 kts 25°